Regional Weather Roundup
Issued by NWS Newport/Morehead, NC

Current Version | Previous Version | Graphics & Text | Print | Product List | Glossary On
Versions: 1 2 3 4 5 6 7 8 9 10 11 12 13 14 15 16 17 18 19 20 21 22 23 24 25 26 27 28 29 30 31 32 33 34 35 36 37 38 39 40 41 42 43 44 45 46 47 48 49 50
000 ASUS42 KMHX 230722 RWRMHX WEATHER ROUNDUP FOR EASTERN NORTH CAROLINA NATIONAL WEATHER SERVICE NEWPORT/MOREHEAD CITY NC 200 AM EST SUN NOV 23 2014 NOTE: "FAIR" INDICATES FEW OR NO CLOUDS BELOW 12,000 FEET WITH NO SIGNIFICANT WEATHER AND/OR OBSTRUCTIONS TO VISIBILITY NCZ015>017-031-032-045>047-102-103-230800- NORTH COAST CITY SKY/WX TMP DP RH WIND PRES REMARKS EDENTON N/A 35 32 88 CALM 30.32R ELIZABETH CITY PTCLDY 39 33 79 CALM 30.32S KITTY HAWK MOSUNNY 48 37 63 CALM 30.30S MANTEO PTCLDY 38 35 90 CALM 30.32S $$ NCZ045>047-081-094-103-104-230800- CENTRAL COAST CITY SKY/WX TMP DP RH WIND PRES REMARKS FRISCO MOCLDY 50 48 93 E5 30.32F SWANQUARTER N/A 39 N/A N/A NE3 30.27S $$ NCZ095-097-098-100-101-230800- SOUTHERN COAST CITY SKY/WX TMP DP RH WIND PRES REMARKS BEAUFORT MOCLDY 44 38 79 E3 30.30F CEDAR ISLAND N/A 48 N/A N/A E2 30.33S JACKSONVILLE CLOUDY 43 39 86 CALM 30.29F PINEY ISLAND CLOUDY 50 43 77 E6 30.30F WILMINGTON CLOUDY 47 44 90 NE3 30.28F $$ NCZ011>013-027>030-043-044-078>080-089-090>093-098-230800- COASTAL PLAIN CITY SKY/WX TMP DP RH WIND PRES REMARKS AHOSKIE PTCLDY 31 25 80 CALM 30.32S CLINTON CLOUDY 41 38 91 CALM 30.30S ELIZABETHTOWN CLOUDY 43 39 88 CALM 30.28S GOLDSBORO MOCLDY 37 35 92 CALM 30.29S GREENVILLE CLOUDY 36 32 87 CALM 30.31F HAVELOCK MOCLDY 44 37 76 SE3 30.31F KENANSVILLE CLOUDY 38 35 91 CALM 30.30F KINSTON MOCLDY 37 33 85 CALM 30.30F NEW BERN CLOUDY 41 36 82 CALM 30.31F RICHLANDS CLOUDY 41 36 81 CALM 30.29F ROCKY MOUNT CLOUDY 35 27 72 CALM 30.31F WASHINGTON CLOUDY 35 32 90 CALM 30.32R WHITEVILLE MOCLDY 43 41 93 CALM 30.27S $$ AMZ130-135-150-152-154-156-158-170-250-252-270-ANZ085-086-088-633-658-670-230800- MARINE OBSERVATIONS STATION/POSITION TIME TEMP WIND PRES WAVE SWELL AIR SEA DIR/SP/G HT/PER HT/PER (UTC) (F) (DEG/KT/KT) (MB) (FT/S) (FT/S) CHESAPEAKE LIGHT 0700 51 210/ 10/ 12 1026.8 64 E VA BEACH 0700 60 61 210/ 10/ 12 1026.2 2/ 9 2/ 9 DUCK 0700 49 54 200/ 7/ 7 1025.5 2 E DUCK 0700 56 N/A 1/ 8 10 NE DUCK 0700 57 N/A 2/ 8 OREGON INLET 0700 48 50 CALM 1026.5 13E OREGON INLT 0700 60 N/A 2/ 9 HATTERAS CG 0700 62 52 170/ 6/ 10 1026.5 DIAMOND BUOY 0700 64 170/ 10/ 14 1026.9 2/ 8 2/ 8 17 S OCRACOKE NOT AVBL CAPE LOOKOUT 0700 61 150/ 8/ 9 1025.6 BEAUFORT LAB 0700 47 52 350/ 3/ 3 1024.9 30 SE NEW RIVER 0700 67 69 180/ 14/ 16 1025.1 3/ 4 2/ 8 5 SE WRIGHTSVLE 0700 56 59 50/ 8/ 8 1025.2 225 S CAPE HAT 0611 68 73 150/ 12/ 14 1026.6 4/ 9 3/ 9 41 SE CHARLESTON 0700 71 75 120/ 16/ 17 1022.7 5/ 8 3/ 8 $$

USA.gov is the U.S. government's official web portal to all federal, state and local government web resources and services.